Retour au catalogue

FENGYUN 1C DEB

LostPO
NORAD 37703·DEBRIS·🇨🇳 China

Lancé May 10, 1999 depuis Taiyuan Satellite Launch Center

Loading…

Prochains Passages (prochaines 24 heures)

TLE

PériméSource: Space-Track

Époque: Sep 18, 2024, 15:15 UTC

1 37703U 99025ELU 24262.63551250  .00012718  00000-0  40225-2 0  9992
2 37703  99.0865 195.4280 0045980 194.4594 288.7427 14.39677054598073

Suivez FENGYUN 1C DEB en temps réel avec AllMySat

Download on the App Store